This is the latest recevied weather packets stored in our database for station/object WB4ZUT. If no packets are shown the sender has not sent any weather packets the latest 10 day(s).
| Time | Temp. | Humidity | Pressure | Rain* | Wind** | Luminosity | Snow |
|---|---|---|---|---|---|---|---|
| 1777787415 | 3.33° C | 98% | 1020.2 hPa | 0 mm | - | 0 W/m² | - |
| 1777787111 | 3.33° C | 98% | 1020.2 hPa | 0 mm | - | 0 W/m² | - |
| 1777786809 | 3.33° C | 98% | 1020 hPa | 0 mm | - | 0 W/m² | - |
| 1777786506 | 3.89° C | 98% | 1020.1 hPa | 0 mm | - | 0 W/m² | - |
| 1777786203 | 3.89° C | 98% | 1020.2 hPa | 0 mm | - | 0 W/m² | - |
| 1777785900 | 3.89° C | 98% | 1020.1 hPa | 0 mm | - | 0 W/m² | - |
| 1777785596 | 3.89° C | 98% | 1020.1 hPa | 0 mm | - | 0 W/m² | - |
| 1777785292 | 3.89° C | 98% | 1020.3 hPa | 0 mm | - | 0 W/m² | - |
| 1777784990 | 3.89° C | 97% | 1020.3 hPa | 0 mm | - | 0 W/m² | - |
| 1777784685 | 3.89° C | 97% | 1020 hPa | 0 mm | - | 0 W/m² | - |
| 1777784383 | 3.89° C | 98% | 1020 hPa | 0 mm | - | 0 W/m² | - |
| 1777784081 | 3.89° C | 97% | 1020 hPa | 0 mm | - | 0 W/m² | - |
| 1777783777 | 4.44° C | 97% | 1020.1 hPa | 0 mm | - | 0 W/m² | - |
| 1777783474 | 3.89° C | 97% | 1020.1 hPa | 0 mm | - | 0 W/m² | - |
| 1777783172 | 3.89° C | 97% | 1020.2 hPa | 0 mm | - | 0 W/m² | - |
| 1777782868 | 4.44° C | 97% | 1020.1 hPa | 0 mm | - | 0 W/m² | - |
| 1777782564 | 4.44° C | 97% | 1020.1 hPa | 0 mm | - | 0 W/m² | - |
| 1777782261 | 5° C | 97% | 1019.9 hPa | 0 mm | - | 0 W/m² | - |
| 1777781958 | 4.44° C | 97% | 1019.9 hPa | 0 mm | - | 0 W/m² | - |
| 1777781655 | 5° C | 97% | 1020 hPa | 0 mm | - | 0 W/m² | - |
| 1777781352 | 5° C | 96% | 1020 hPa | 0 mm | - | 0 W/m² | - |
| 1777781049 | 5° C | 96% | 1020 hPa | 0 mm | - | 0 W/m² | - |
| 1777780747 | 5° C | 96% | 1019.9 hPa | 0 mm | - | 0 W/m² | - |
| 1777780443 | 4.44° C | 96% | 1020 hPa | 0 mm | - | 0 W/m² | - |
| 1777780140 | 4.44° C | 96% | 1019.9 hPa | 0 mm | - | 0 W/m² | - |
* Rain latest hour (hover to see other rain measurements)
** Current wind speed in m/s (hover to see current wind gust speed)